QPF
0.13 0.11 0.11 0.11 0.10 0.11 0.09 0.08 0.09 0.09 0.11 0.11 0.09 0.07 0.07 0.06 0.05 0.05 0.05 0.04 0.03 0.03 0.03 0.05 0.07 0.06 0.06 0.05 0.06 0.06 0.06 0.06 0.05 0.07 0.07 0.04 0.04 0.06 0.06 0.06 0.06 0.05 0.04
0.08 0.08 0.08 0.09 0.08 0.09 0.08 0.07 0.08 0.08 0.08 0.08 0.07 0.07 0.06 0.05 0.05 0.05 0.04 0.02 0.01 0.01 0.02 0.03 0.03 0.03 0.03 0.04 0.03 0.03 0.04 0.03 0.03 0.05 0.06 0.05 0.06 0.06 0.04 0.05 0.05 0.05 0.06
0.06 0.05 0.06 0.09 0.08 0.07 0.07 0.07 0.07 0.06 0.07 0.07 0.06 0.06 0.05 0.04 0.03 0.03 0.02 0.01 0.00 0.01 0.02 0.02 0.02 0.02 0.02 0.03 0.02 0.02 0.02 0.03 0.03 0.04 0.04 0.04 0.06 0.07 0.05 0.03 0.04 0.05 0.05
0.04 0.03 0.05 0.06 0.06 0.05 0.05 0.07 0.09 0.07 0.06 0.06 0.06 0.05 0.03 0.03 0.03 0.03 0.02 0.01 0.00 0.00 0.01 0.01 0.01 0.01 0.01 0.01 0.01 0.02 0.01 0.02 0.03 0.04 0.03 0.03 0.04 0.05 0.05 0.03 0.03 0.02 0.03
0.04 0.03 0.04 0.04 0.04 0.04 0.05 0.06 0.08 0.09 0.07 0.06 0.05 0.04 0.03 0.03 0.02 0.02 0.01 0.01 0.01 0.00 0.00 0.00 0.00 0.00 0.00 0.00 0.00 0.00 0.00 0.01 0.01 0.01 0.01 0.01 0.02 0.03 0.03 0.04 0.03 0.02 0.01
0.04 0.04 0.05 0.04 0.03 0.04 0.05 0.06 0.06 0.07 0.07 0.06 0.04 0.03 0.03 0.03 0.02 0.01 0.01 0.01 0.01 0.00 0.00 0.00 0.00 0.00 0.00 0.00 0.00 0.00 0.00 0.00 0.00 0.01 0.01 0.01 0.01 0.01 0.01 0.02 0.03 0.02 0.01
0.02 0.03 0.03 0.03 0.03 0.03 0.05 0.06 0.05 0.05 0.05 0.04 0.02 0.01 0.02 0.02 0.02 0.01 0.01 0.01 0.01 0.01 0.00 0.00 0.00 0.00 0.00 0.00 0.00 0.00 0.00 0.00 0.00 0.00 0.00 0.00 0.00 0.00 0.01 0.01 0.01 0.01 0.00
0.01 0.01 0.01 0.01 0.01 0.01 0.02 0.03 0.04 0.04 0.04 0.03 0.02 0.02 0.01 0.01 0.01 0.01 0.01 0.01 0.01 0.00 0.00 0.00 0.00 0.00 0.00 0.00 0.00 0.00 0.00 0.00 0.00 0.00 0.00 0.00 0.00 0.00 0.00 0.00 0.00 0.00 0.00
0.00 0.01 0.00 0.01 0.01 0.01 0.01 0.02 0.03 0.03 0.03 0.03 0.03 0.02 0.01 0.01 0.01 0.01 0.01 0.00 0.00 0.00 0.00 0.00 0.00 0.00 0.00 0.00 0.00 0.00 0.00 0.00 0.00 0.00 0.00 0.00 0.00 0.00 0.00 0.00 0.00 0.00 0.00
0.00 0.01 0.01 0.00 0.01 0.01 0.01 0.02 0.02 0.02 0.03 0.02 0.02 0.02 0.01 0.01 0.01 0.00 0.00 0.00 0.00 0.00 0.00 0.00 0.00 0.00 0.00 0.00 0.00 0.00 0.00 0.00 0.00 0.00 0.00 0.00 0.00 0.00 0.00 0.00 0.00 0.00 0.00
0.00 0.01 0.02 0.02 0.01 0.01 0.01 0.01 0.01 0.02 0.02 0.02 0.01 0.01 0.01 0.01 0.00 0.00 0.00 0.00 0.00 0.00 0.00 0.00 0.00 0.00 0.00 0.00 0.00 0.00 0.00 0.00 0.00 0.00 0.00 0.00 0.00 0.00 0.00 0.00 0.00 0.00 0.00
0.00 0.01 0.01 0.03 0.01 0.00 0.00 0.00 0.01 0.01 0.01 0.01 0.01 0.01 0.01 0.00 0.00 0.00 0.00 0.00 0.00 0.00 0.00 0.00 0.00 0.00 0.00 0.00 0.00 0.00 0.00 0.00 0.00 0.00 0.00 0.00 0.00 0.00 0.00 0.00 0.00 0.00 0.00
0.00 0.01 0.01 0.01 0.00 0.00 0.00 0.00 0.00 0.01 0.01 0.01 0.01 0.01 0.00 0.00 0.00 0.00 0.00 0.00 0.00 0.00 0.00 0.00 0.00 0.00 0.00 0.00 0.00 0.00 0.00 0.00 0.00 0.00 0.00 0.00 0.00 0.00 0.00 0.01 0.00 0.00 0.00
0.01 0.01 0.01 0.01 0.00 0.00 0.00 0.00 0.00 0.00 0.01 0.01 0.01 0.00 0.00 0.00 0.00 0.00 0.00 0.00 0.00 0.00 0.00 0.00 0.00 0.00 0.00 0.00 0.00 0.00 0.00 0.00 0.00 0.00 0.00 0.00 0.00 0.01 0.01 0.01 0.01 0.00 0.00
0.01 0.00 0.00 0.00 0.00 0.00 0.00 0.00 0.00 0.00 0.00 0.00 0.00 0.00 0.00 0.00 0.00 0.00 0.00 0.00 0.00 0.00 0.00 0.00 0.00 0.00 0.00 0.00 0.00 0.00 0.00 0.00 0.00 0.00 0.00 0.00 0.00 0.00 0.00 0.00 0.00 0.00 0.00
0.00 0.00 0.00 0.00 0.00 0.00 0.00 0.00 0.00 0.00 0.00 0.00 0.00 0.00 0.00 0.00 0.00 0.00 0.00 0.00 0.00 0.00 0.00 0.00 0.00 0.00 0.00 0.00 0.00 0.00 0.00 0.00 0.00 0.00 0.00 0.00 0.00 0.00 0.00 0.00 0.00 0.00 0.00
0.00 0.00 0.00 0.00 0.00 0.00 0.00 0.00 0.00 0.00 0.00 0.00 0.00 0.00 0.00 0.00 0.00 0.00 0.00 0.00 0.00 0.00 0.00 0.00 0.00 0.00 0.00 0.00 0.00 0.00 0.00 0.00 0.00 0.00 0.00 0.00 0.00 0.00 0.00 0.00 0.00 0.00 0.00
0.00 0.00 0.00 0.00 0.00 0.00 0.00 0.00 0.00 0.00 0.00 0.00 0.00 0.00 0.00 0.01 0.00 0.00 0.00 0.00 0.00 0.00 0.00 0.00 0.00 0.00 0.00 0.00 0.00 0.00 0.00 0.00 0.00 0.00 0.00 0.00 0.00 0.00 0.00 0.01 0.01 0.01 0.01
0.00 0.00 0.00 0.00 0.00 0.00 0.00 0.00 0.00 0.00 0.00 0.00 0.00 0.00 0.00 0.01 0.01 0.00 0.00 0.00 0.00 0.00 0.00 0.00 0.00 0.00 0.00 0.00 0.00 0.00 0.00 0.00 0.00 0.00 0.00 0.00 0.00 0.00 0.00 0.00 0.01 0.01 0.01
0.00 0.00 0.00 0.00 0.00 0.00 0.00 0.00 0.00 0.00 0.00 0.00 0.00 0.00 0.00 0.00 0.00 0.00 0.00 0.00 0.00 0.00 0.00 0.00 0.00 0.00 0.00 0.00 0.00 0.00 0.00 0.00 0.00 0.00 0.00 0.00 0.00 0.00 0.00 0.00 0.01 0.01 0.01
0.00 0.00 0.00 0.00 0.00 0.00 0.00 0.00 0.00 0.00 0.00 0.00 0.00 0.00 0.00 0.00 0.00 0.00 0.00 0.00 0.00 0.00 0.00 0.00 0.00 0.00 0.00 0.00 0.00 0.00 0.00 0.00 0.00 0.00 0.00 0.00 0.00 0.00 0.00 0.00 0.01 0.01 0.01
0.00 0.00 0.00 0.00 0.00 0.00 0.00 0.00 0.00 0.00 0.01 0.01 0.01 0.01 0.01 0.00 0.00 0.00 0.01 0.00 0.00 0.00 0.00 0.01 0.01 0.01 0.01 0.00 0.00 0.00 0.00 0.00 0.00 0.00 0.00 0.00 0.00 0.00 0.00 0.00 0.00 0.00 0.00
0.00 0.00 0.00 0.01 0.02 0.02 0.01 0.01 0.01 0.01 0.01 0.01 0.01 0.02 0.02 0.01 0.01 0.00 0.00 0.01 0.01 0.01 0.01 0.01 0.01 0.01 0.00 0.01 0.00 0.00 0.00 0.00 0.00 0.00 0.00 0.00 0.00 0.00 0.00 0.00 0.00 0.00 0.00
0.00 0.00 0.00 0.01 0.01 0.01 0.01 0.01 0.01 0.01 0.01 0.01 0.01 0.01 0.01 0.01 0.01 0.01 0.00 0.01 0.01 0.02 0.02 0.01 0.01 0.00 0.00 0.00 0.01 0.01 0.01 0.01 0.00 0.00 0.00 0.00 0.00 0.00 0.00 0.00 0.01 0.01 0.02
0.00 0.00 0.01 0.01 0.01 0.01 0.01 0.01 0.01 0.01 0.01 0.01 0.02 0.02 0.01 0.01 0.01 0.01 0.01 0.02 0.02 0.01 0.01 0.01 0.00 0.00 0.00 0.01 0.02 0.01 0.01 0.01 0.00 0.00 0.00 0.00 0.00 0.01 0.01 0.02 0.04 0.05 0.05
0.00 0.01 0.02 0.02 0.02 0.02 0.02 0.02 0.02 0.02 0.01 0.01 0.01 0.01 0.00 0.01 0.01 0.02 0.02 0.02 0.02 0.01 0.01 0.00 0.00 0.00 0.00 0.00 0.00 0.00 0.00 0.00 0.00 0.00 0.00 0.00 0.01 0.01 0.02 0.04 0.04 0.05 0.07
MSLP
1010.24 1010.43 1010.51 1010.52 1010.50 1010.52 1010.62 1010.85 1011.22 1011.68 1012.21 1012.73 1013.21 1013.59 1013.87 1014.05 1014.15 1014.22 1014.30 1014.40 1014.56 1014.75 1014.98 1015.22 1015.43 1015.62 1015.76 1015.87 1015.95 1016.02 1016.10 1016.20 1016.30 1016.40 1016.48 1016.52 1016.52 1016.45 1016.35 1016.23 1016.12 1016.07 1016.08
1010.18 1010.57 1010.84 1010.99 1011.07 1011.12 1011.22 1011.39 1011.67 1012.05 1012.49 1012.95 1013.38 1013.73 1013.98 1014.14 1014.23 1014.28 1014.34 1014.44 1014.59 1014.80 1015.05 1015.32 1015.56 1015.77 1015.93 1016.03 1016.10 1016.15 1016.21 1016.28 1016.37 1016.47 1016.57 1016.64 1016.67 1016.65 1016.58 1016.47 1016.36 1016.27 1016.23
1010.08 1010.64 1011.08 1011.38 1011.55 1011.65 1011.74 1011.86 1012.06 1012.35 1012.71 1013.10 1013.48 1013.79 1014.03 1014.19 1014.27 1014.33 1014.39 1014.50 1014.67 1014.90 1015.17 1015.47 1015.74 1015.97 1016.14 1016.25 1016.31 1016.34 1016.37 1016.42 1016.49 1016.59 1016.69 1016.79 1016.85 1016.86 1016.82 1016.72 1016.61 1016.49 1016.40
1009.93 1010.63 1011.21 1011.64 1011.91 1012.06 1012.14 1012.23 1012.37 1012.59 1012.87 1013.20 1013.54 1013.83 1014.07 1014.23 1014.33 1014.41 1014.49 1014.61 1014.79 1015.04 1015.33 1015.64 1015.93 1016.18 1016.36 1016.47 1016.52 1016.54 1016.55 1016.57 1016.63 1016.72 1016.83 1016.94 1017.02 1017.06 1017.04 1016.96 1016.84 1016.70 1016.56
1009.70 1010.50 1011.20 1011.74 1012.09 1012.30 1012.41 1012.49 1012.59 1012.76 1012.99 1013.28 1013.58 1013.87 1014.12 1014.30 1014.43 1014.53 1014.64 1014.77 1014.96 1015.20 1015.49 1015.80 1016.10 1016.35 1016.53 1016.65 1016.70 1016.71 1016.71 1016.73 1016.78 1016.86 1016.97 1017.08 1017.17 1017.23 1017.22 1017.15 1017.02 1016.86 1016.69
1009.39 1010.26 1011.04 1011.67 1012.11 1012.39 1012.54 1012.63 1012.73 1012.87 1013.08 1013.35 1013.65 1013.95 1014.21 1014.42 1014.59 1014.71 1014.83 1014.97 1015.15 1015.38 1015.65 1015.93 1016.21 1016.45 1016.63 1016.75 1016.81 1016.83 1016.84 1016.86 1016.91 1016.99 1017.09 1017.21 1017.31 1017.37 1017.37 1017.30 1017.17 1017.00 1016.79
1009.00 1009.89 1010.74 1011.45 1011.98 1012.33 1012.55 1012.68 1012.80 1012.95 1013.16 1013.43 1013.74 1014.05 1014.34 1014.59 1014.78 1014.93 1015.06 1015.19 1015.35 1015.54 1015.77 1016.02 1016.26 1016.48 1016.65 1016.77 1016.85 1016.89 1016.92 1016.95 1017.01 1017.10 1017.21 1017.33 1017.43 1017.50 1017.50 1017.43 1017.30 1017.11 1016.89
1008.52 1009.43 1010.32 1011.10 1011.72 1012.16 1012.45 1012.65 1012.82 1013.01 1013.24 1013.53 1013.85 1014.18 1014.50 1014.77 1014.99 1015.15 1015.29 1015.40 1015.53 1015.68 1015.86 1016.05 1016.26 1016.44 1016.61 1016.73 1016.83 1016.89 1016.95 1017.02 1017.10 1017.20 1017.32 1017.44 1017.54 1017.61 1017.61 1017.54 1017.41 1017.22 1016.99
1007.96 1008.88 1009.81 1010.65 1011.35 1011.88 1012.27 1012.56 1012.79 1013.03 1013.30 1013.61 1013.96 1014.31 1014.64 1014.94 1015.17 1015.34 1015.47 1015.58 1015.67 1015.78 1015.91 1016.05 1016.22 1016.38 1016.53 1016.66 1016.77 1016.87 1016.96 1017.06 1017.17 1017.29 1017.42 1017.54 1017.64 1017.70 1017.71 1017.65 1017.52 1017.34 1017.11
1007.35 1008.27 1009.22 1010.12 1010.90 1011.53 1012.01 1012.39 1012.71 1013.01 1013.32 1013.66 1014.02 1014.39 1014.73 1015.03 1015.28 1015.46 1015.59 1015.68 1015.76 1015.84 1015.93 1016.04 1016.17 1016.30 1016.44 1016.58 1016.71 1016.83 1016.95 1017.08 1017.21 1017.35 1017.49 1017.61 1017.71 1017.77 1017.78 1017.73 1017.62 1017.45 1017.24
1006.71 1007.62 1008.59 1009.53 1010.38 1011.09 1011.68 1012.15 1012.55 1012.91 1013.27 1013.64 1014.01 1014.38 1014.73 1015.03 1015.28 1015.47 1015.61 1015.70 1015.78 1015.85 1015.93 1016.02 1016.13 1016.25 1016.38 1016.52 1016.65 1016.79 1016.93 1017.07 1017.22 1017.36 1017.50 1017.62 1017.72 1017.78 1017.80 1017.76 1017.67 1017.53 1017.35
1006.06 1006.96 1007.94 1008.91 1009.80 1010.59 1011.26 1011.82 1012.30 1012.73 1013.13 1013.52 1013.91 1014.27 1014.61 1014.91 1015.16 1015.36 1015.51 1015.63 1015.72 1015.80 1015.89 1015.98 1016.09 1016.21 1016.33 1016.47 1016.60 1016.74 1016.88 1017.02 1017.16 1017.30 1017.43 1017.55 1017.64 1017.71 1017.74 1017.72 1017.66 1017.56 1017.40
1005.45 1006.33 1007.29 1008.27 1009.19 1010.03 1010.77 1011.41 1011.96 1012.45 1012.90 1013.31 1013.70 1014.06 1014.39 1014.68 1014.94 1015.14 1015.32 1015.46 1015.59 1015.70 1015.81 1015.92 1016.04 1016.16 1016.28 1016.40 1016.53 1016.65 1016.77 1016.90 1017.02 1017.14 1017.26 1017.37 1017.46 1017.53 1017.57 1017.58 1017.55 1017.49 1017.38
1004.90 1005.74 1006.68 1007.63 1008.56 1009.43 1010.22 1010.92 1011.54 1012.09 1012.57 1013.01 1013.41 1013.77 1014.09 1014.37 1014.62 1014.84 1015.04 1015.21 1015.37 1015.53 1015.67 1015.81 1015.94 1016.07 1016.19 1016.29 1016.39 1016.49 1016.58 1016.68 1016.77 1016.87 1016.97 1017.07 1017.16 1017.23 1017.29 1017.33 1017.34 1017.32 1017.26
1004.43 1005.23 1006.11 1007.02 1007.93 1008.80 1009.62 1010.37 1011.05 1011.65 1012.18 1012.65 1013.06 1013.42 1013.74 1014.01 1014.26 1014.49 1014.70 1014.91 1015.10 1015.29 1015.47 1015.63 1015.78 1015.91 1016.02 1016.10 1016.17 1016.24 1016.29 1016.36 1016.42 1016.50 1016.58 1016.67 1016.76 1016.84 1016.92 1016.98 1017.03 1017.05 1017.04
1004.05 1004.79 1005.60 1006.45 1007.32 1008.18 1009.01 1009.80 1010.52 1011.18 1011.76 1012.26 1012.70 1013.07 1013.38 1013.65 1013.90 1014.12 1014.35 1014.57 1014.78 1015.00 1015.20 1015.38 1015.53 1015.66 1015.75 1015.82 1015.86 1015.89 1015.91 1015.94 1015.98 1016.04 1016.11 1016.19 1016.29 1016.39 1016.48 1016.57 1016.64 1016.69 1016.72
1003.75 1004.42 1005.15 1005.93 1006.74 1007.57 1008.40 1009.22 1009.98 1010.69 1011.32 1011.87 1012.34 1012.72 1013.04 1013.31 1013.55 1013.77 1013.99 1014.21 1014.43 1014.65 1014.86 1015.05 1015.20 1015.32 1015.40 1015.44 1015.45 1015.46 1015.45 1015.46 1015.48 1015.53 1015.60 1015.69 1015.79 1015.90 1016.01 1016.12 1016.21 1016.27 1016.31
1003.52 1004.13 1004.77 1005.47 1006.22 1007.01 1007.82 1008.64 1009.44 1010.20 1010.88 1011.48 1011.98 1012.40 1012.73 1013.00 1013.23 1013.44 1013.65 1013.85 1014.06 1014.27 1014.47 1014.65 1014.79 1014.90 1014.96 1014.99 1014.98 1014.97 1014.95 1014.95 1014.97 1015.01 1015.08 1015.18 1015.30 1015.42 1015.54 1015.65 1015.74 1015.81 1015.84
1003.33 1003.88 1004.45 1005.07 1005.75 1006.49 1007.28 1008.09 1008.91 1009.70 1010.43 1011.07 1011.62 1012.06 1012.42 1012.70 1012.92 1013.12 1013.30 1013.48 1013.67 1013.86 1014.03 1014.19 1014.32 1014.41 1014.46 1014.48 1014.47 1014.45 1014.43 1014.43 1014.45 1014.50 1014.58 1014.69 1014.81 1014.94 1015.06 1015.17 1015.25 1015.29 1015.31
1003.19 1003.68 1004.19 1004.74 1005.35 1006.03 1006.77 1007.57 1008.39 1009.19 1009.95 1010.63 1011.22 1011.69 1012.07 1012.36 1012.59 1012.77 1012.93 1013.08 1013.24 1013.39 1013.55 1013.68 1013.79 1013.88 1013.92 1013.94 1013.94 1013.92 1013.91 1013.92 1013.95 1014.01 1014.09 1014.20 1014.32 1014.44 1014.55 1014.64 1014.69 1014.71 1014.69
1003.09 1003.54 1004.00 1004.48 1005.02 1005.64 1006.33 1007.08 1007.88 1008.68 1009.45 1010.15 1010.76 1011.26 1011.66 1011.96 1012.18 1012.35 1012.49 1012.62 1012.75 1012.87 1013.00 1013.11 1013.21 1013.29 1013.34 1013.37 1013.37 1013.37 1013.38 1013.39 1013.43 1013.49 1013.58 1013.68 1013.78 1013.89 1013.97 1014.03 1014.05 1014.02 1013.96
1003.07 1003.50 1003.91 1004.33 1004.80 1005.35 1005.97 1006.66 1007.41 1008.18 1008.93 1009.62 1010.24 1010.75 1011.16 1011.46 1011.69 1011.85 1011.97 1012.07 1012.17 1012.27 1012.37 1012.47 1012.56 1012.64 1012.70 1012.74 1012.77 1012.79 1012.81 1012.83 1012.87 1012.93 1013.00 1013.07 1013.15 1013.22 1013.27 1013.29 1013.27 1013.21 1013.11
1003.20 1003.60 1003.97 1004.34 1004.74 1005.20 1005.74 1006.35 1007.02 1007.73 1008.43 1009.09 1009.68 1010.18 1010.58 1010.88 1011.10 1011.25 1011.36 1011.44 1011.51 1011.59 1011.67 1011.75 1011.84 1011.92 1011.99 1012.05 1012.10 1012.14 1012.17 1012.20 1012.23 1012.27 1012.32 1012.36 1012.40 1012.42 1012.43 1012.40 1012.33 1012.24 1012.11
1003.50 1003.89 1004.23 1004.54 1004.87 1005.24 1005.68 1006.19 1006.76 1007.38 1008.00 1008.59 1009.14 1009.60 1009.98 1010.26 1010.46 1010.59 1010.67 1010.73 1010.77 1010.82 1010.88 1010.96 1011.04 1011.13 1011.21 1011.29 1011.36 1011.41 1011.45 1011.48 1011.50 1011.52 1011.53 1011.53 1011.51 1011.48 1011.43 1011.35 1011.25 1011.12 1010.97
1004.02 1004.40 1004.71 1004.97 1005.23 1005.52 1005.85 1006.24 1006.70 1007.19 1007.71 1008.21 1008.68 1009.08 1009.41 1009.65 1009.81 1009.91 1009.96 1009.98 1010.00 1010.02 1010.05 1010.11 1010.18 1010.27 1010.36 1010.46 1010.54 1010.61 1010.65 1010.68 1010.68 1010.67 1010.64 1010.58 1010.51 1010.42 1010.31 1010.19 1010.05 1009.89 1009.73
1004.77 1005.14 1005.42 1005.64 1005.83 1006.03 1006.26 1006.53 1006.86 1007.22 1007.61 1008.01 1008.37 1008.69 1008.95 1009.13 1009.24 1009.29 1009.29 1009.27 1009.25 1009.23 1009.23 1009.26 1009.32 1009.40 1009.49 1009.59 1009.68 1009.76 1009.81 1009.82 1009.81 1009.77 1009.69 1009.58 1009.45 1009.30 1009.14 1008.97 1008.79 1008.61 1008.44
Thickness
5758 5756 5755 5755 5753 5751 5749 5748 5746 5744 5743 5741 5740 5740 5739 5740 5740 5738 5737 5736 5735 5733 5733 5732 5730 5729 5727 5725 5724 5723 5721 5721 5722 5719 5719 5723 5726 5725 5724 5724 5723 5722 5721
5753 5752 5752 5752 5751 5749 5747 5745 5743 5742 5741 5741 5740 5740 5739 5739 5738 5736 5735 5734 5733 5732 5733 5730 5729 5728 5725 5723 5723 5721 5718 5719 5720 5716 5712 5712 5715 5720 5723 5721 5720 5720 5719
5752 5750 5750 5749 5748 5746 5745 5745 5743 5742 5741 5741 5740 5740 5737 5736 5734 5733 5732 5732 5732 5730 5729 5728 5727 5726 5724 5721 5721 5719 5717 5714 5716 5717 5711 5704 5701 5707 5714 5716 5716 5715 5715
5755 5752 5750 5748 5747 5747 5747 5745 5742 5741 5741 5740 5739 5736 5733 5731 5732 5732 5731 5731 5730 5729 5727 5726 5725 5723 5722 5720 5719 5716 5716 5713 5711 5712 5712 5709 5705 5699 5700 5706 5710 5711 5711
5758 5754 5752 5750 5749 5749 5747 5743 5741 5739 5739 5738 5738 5736 5735 5734 5734 5732 5729 5729 5727 5727 5726 5724 5722 5721 5720 5717 5716 5714 5713 5711 5708 5707 5707 5706 5705 5703 5696 5694 5699 5703 5706
5760 5757 5756 5753 5750 5749 5746 5742 5738 5736 5737 5737 5737 5735 5734 5733 5731 5728 5726 5726 5726 5725 5724 5722 5720 5719 5717 5715 5713 5711 5710 5708 5705 5704 5703 5701 5698 5696 5694 5690 5691 5693 5699
5763 5759 5755 5752 5749 5747 5745 5741 5737 5734 5735 5735 5735 5734 5732 5731 5728 5727 5726 5726 5725 5723 5721 5721 5719 5717 5715 5713 5711 5709 5707 5705 5702 5700 5699 5698 5697 5696 5693 5688 5687 5687 5691
5768 5763 5758 5754 5752 5749 5745 5741 5736 5734 5734 5734 5733 5732 5731 5730 5729 5728 5728 5726 5726 5724 5721 5719 5717 5715 5713 5712 5709 5708 5705 5703 5700 5699 5696 5694 5694 5693 5691 5686 5682 5678 5681
5773 5767 5762 5759 5755 5751 5747 5743 5738 5735 5734 5733 5731 5731 5730 5730 5729 5728 5727 5726 5724 5722 5720 5718 5716 5713 5711 5709 5707 5704 5702 5700 5697 5696 5694 5691 5690 5690 5688 5685 5682 5675 5669
5776 5771 5766 5762 5759 5755 5750 5746 5741 5737 5734 5733 5731 5730 5729 5728 5727 5727 5725 5724 5722 5720 5718 5716 5714 5711 5709 5707 5704 5703 5701 5698 5695 5692 5690 5687 5686 5684 5683 5681 5679 5676 5670
5780 5774 5769 5765 5761 5757 5752 5747 5742 5738 5735 5734 5733 5731 5729 5728 5726 5725 5723 5721 5719 5717 5715 5713 5711 5709 5707 5705 5702 5700 5699 5695 5693 5690 5688 5685 5683 5680 5677 5676 5674 5672 5669
5786 5780 5774 5767 5762 5758 5754 5749 5745 5741 5738 5736 5733 5731 5729 5728 5725 5724 5722 5720 5717 5716 5714 5712 5710 5708 5706 5703 5701 5698 5697 5693 5690 5687 5685 5682 5680 5676 5674 5671 5669 5667 5665
5788 5783 5776 5770 5765 5761 5757 5752 5748 5744 5741 5738 5734 5731 5729 5727 5725 5723 5721 5719 5716 5714 5712 5710 5708 5706 5704 5702 5699 5696 5694 5691 5688 5685 5682 5679 5676 5673 5670 5667 5665 5663 5662
5789 5783 5777 5772 5768 5764 5759 5755 5751 5748 5744 5739 5735 5731 5729 5727 5724 5723 5720 5717 5715 5713 5711 5708 5706 5704 5702 5700 5697 5694 5691 5688 5685 5683 5680 5677 5674 5670 5667 5664 5661 5659 5655
5788 5784 5778 5773 5769 5765 5761 5757 5753 5749 5746 5740 5736 5732 5729 5727 5724 5721 5718 5716 5713 5712 5709 5706 5704 5702 5700 5698 5695 5691 5689 5685 5682 5680 5678 5675 5673 5669 5665 5661 5658 5654 5650
5789 5786 5781 5776 5771 5767 5763 5759 5755 5751 5746 5740 5736 5733 5729 5725 5722 5719 5717 5714 5711 5709 5707 5704 5701 5699 5699 5695 5691 5687 5684 5681 5679 5676 5674 5673 5670 5667 5663 5658 5654 5649 5644
5792 5788 5784 5779 5774 5770 5766 5760 5756 5752 5746 5741 5737 5733 5728 5724 5721 5718 5715 5711 5708 5706 5703 5701 5698 5696 5693 5690 5686 5682 5679 5676 5674 5672 5670 5669 5669 5665 5661 5656 5651 5646 5642
5796 5792 5788 5783 5778 5774 5768 5763 5757 5751 5745 5740 5736 5732 5727 5723 5719 5716 5712 5709 5706 5703 5700 5697 5695 5693 5690 5686 5682 5678 5674 5672 5671 5669 5667 5665 5663 5661 5657 5653 5649 5645 5642
5801 5797 5794 5789 5782 5775 5769 5762 5756 5750 5744 5739 5735 5731 5727 5722 5717 5713 5710 5707 5703 5700 5697 5694 5692 5689 5687 5683 5679 5674 5671 5669 5668 5667 5666 5664 5661 5658 5653 5648 5644 5641 5638
5803 5798 5794 5789 5781 5776 5770 5760 5754 5748 5742 5739 5735 5732 5727 5721 5716 5712 5708 5704 5700 5696 5694 5691 5689 5687 5684 5681 5676 5670 5668 5667 5666 5665 5665 5663 5659 5656 5650 5644 5640 5635 5634
5799 5797 5792 5785 5780 5776 5768 5758 5752 5747 5744 5740 5735 5730 5724 5719 5714 5709 5705 5701 5696 5693 5689 5688 5687 5685 5683 5679 5674 5668 5665 5663 5661 5660 5660 5659 5655 5650 5644 5639 5635 5632 5629
5792 5791 5785 5780 5777 5773 5764 5755 5750 5748 5743 5738 5731 5726 5720 5716 5712 5706 5701 5697 5692 5688 5685 5682 5681 5681 5680 5677 5673 5668 5663 5661 5657 5655 5654 5652 5647 5642 5637 5633 5630 5627 5622
5783 5784 5779 5773 5770 5766 5760 5751 5747 5745 5739 5732 5726 5721 5716 5711 5708 5702 5696 5691 5687 5684 5682 5680 5678 5677 5678 5676 5672 5666 5661 5656 5651 5651 5649 5644 5639 5634 5632 5629 5626 5620 5615
5775 5775 5771 5764 5759 5758 5754 5749 5744 5739 5733 5726 5720 5716 5710 5705 5701 5697 5693 5687 5684 5681 5678 5676 5674 5674 5673 5671 5667 5661 5655 5649 5644 5642 5640 5637 5634 5631 5628 5626 5623 5618 5614
5766 5765 5761 5755 5751 5749 5745 5741 5737 5732 5725 5719 5713 5709 5705 5701 5696 5692 5689 5686 5683 5681 5675 5673 5671 5668 5664 5661 5656 5651 5648 5643 5639 5633 5631 5630 5629 5628 5627 5625 5622 5619 5614
5754 5751 5749 5746 5743 5740 5735 5732 5729 5724 5716 5710 5706 5703 5699 5695 5691 5686 5683 5682 5679 5676 5672 5669 5665 5663 5659 5654 5649 5644 5639 5633 5626 5621 5622 5622 5622 5621 5620 5618 5615 5613 5609